Theta_e
284 284 285 285 285 286 286 286 285 285 284 283 283 282 282 281 282 281 282 281 283 285 283 282 283 283 283 283 283 283 283 283 284 284 285 285 286 286 286 286 286 287 287 286 287 287 287 286 286 287 287 286 287 287 287 286 286 286 286 286 286 286
284 284 284 285 286 286 286 286 285 284 285 283 282 281 280 280 281 281 281 281 281 282 280 281 281 281 281 282 282 282 282 283 283 283 284 285 285 285 285 285 285 285 285 286 286 286 286 286 286 286 286 287 287 287 287 286 285 285 286 286 286 286
284 284 285 285 285 285 286 287 287 286 286 284 283 282 281 280 281 281 281 281 280 280 280 281 281 281 281 281 281 282 283 283 284 284 285 285 285 285 285 285 285 285 285 285 285 285 286 286 286 286 285 286 286 286 286 285 285 285 285 285 285 285
285 285 285 286 285 285 285 286 286 285 284 284 283 282 281 280 281 281 281 281 281 280 280 280 280 281 280 280 280 281 282 283 283 284 284 284 285 285 285 285 286 286 285 285 285 285 285 286 286 286 285 286 285 285 286 286 285 285 284 284 284 284
284 284 284 284 284 285 286 286 285 285 284 283 282 282 281 282 282 282 282 282 281 280 280 280 280 280 279 280 280 280 282 282 283 283 283 283 284 284 284 285 285 285 285 285 285 285 285 285 286 286 286 286 285 285 285 286 285 284 284 284 284 284
284 284 284 285 284 285 285 285 285 285 284 284 283 282 281 281 281 281 282 282 282 282 280 280 281 281 280 279 280 280 281 282 282 283 283 283 283 283 284 284 284 284 284 284 284 285 285 285 285 285 285 285 285 285 285 285 285 285 284 284 284 284
283 284 284 284 284 286 284 285 284 283 283 282 281 282 282 282 281 280 280 281 281 281 281 280 280 280 281 281 280 279 280 281 281 281 282 282 283 283 283 283 284 284 284 284 284 284 284 284 285 285 285 285 284 285 285 285 285 285 284 284 284 285
281 281 281 282 282 282 282 282 282 281 281 280 281 280 280 280 281 280 279 279 279 279 279 280 280 281 281 282 282 281 280 280 280 281 281 281 282 282 282 282 283 283 283 283 283 283 284 284 284 284 284 284 285 285 285 285 285 285 285 285 284 284
280 280 280 280 280 280 280 280 281 280 280 280 280 279 279 279 279 279 279 279 278 278 278 278 279 280 281 281 282 282 282 281 280 280 280 281 281 281 281 282 282 282 282 282 283 283 283 283 284 284 284 284 285 285 285 285 285 285 285 285 285 285
280 280 280 280 281 281 281 281 281 281 280 280 280 280 280 281 279 279 278 278 278 278 278 278 278 279 280 281 282 282 281 281 280 279 279 279 280 280 280 280 281 282 282 282 282 282 283 283 283 283 283 283 284 284 284 285 285 284 284 285 285 285
279 279 280 280 281 281 280 281 280 280 280 280 280 279 279 279 279 278 278 278 278 278 278 278 278 278 278 279 280 280 280 280 279 279 278 278 278 280 280 281 281 281 280 280 280 280 281 282 283 284 283 282 282 283 283 284 284 284 284 284 284 284
279 279 280 280 280 280 280 280 280 280 280 280 279 279 279 279 278 278 277 277 277 277 277 278 278 278 278 277 278 279 279 279 278 278 277 277 277 278 279 279 280 280 280 280 280 280 281 281 282 284 287 288 285 283 283 284 284 284 284 284 284 284
279 279 279 279 279 280 280 280 280 280 279 279 278 278 278 279 278 278 277 277 277 277 277 277 277 278 277 277 277 277 277 277 277 276 276 276 276 276 277 278 277 278 279 279 279 279 280 281 282 285 287 289 290 287 284 284 284 284 284 284 284 283
278 279 279 279 280 280 279 279 279 279 279 278 278 278 279 278 277 277 277 277 277 277 277 277 277 277 277 276 276 277 277 277 276 276 275 275 275 275 276 275 275 276 277 278 278 279 279 280 283 286 286 287 287 287 285 284 283 283 283 283 283 284
278 279 279 279 280 280 280 280 279 279 279 278 279 278 278 277 277 277 277 277 277 277 277 277 276 276 276 276 276 276 276 275 275 275 274 274 274 275 274 274 274 275 275 276 277 277 278 279 283 284 285 286 286 287 286 284 283 282 283 283 283 283
279 280 280 280 280 280 280 280 280 279 279 279 278 277 277 276 276 276 277 277 276 276 276 276 275 276 276 276 275 275 275 275 274 274 274 274 274 273 273 273 273 274 274 275 275 276 276 277 281 283 284 285 285 286 285 283 282 282 282 282 283 283
280 280 279 279 280 280 281 280 279 279 278 278 277 276 275 275 276 276 276 276 276 276 275 275 275 275 275 275 275 274 274 274 274 274 274 273 273 272 272 272 272 273 273 273 274 274 275 276 281 282 283 284 285 285 285 283 282 282 282 282 283 283
280 280 280 281 280 280 279 278 278 278 277 276 275 275 275 274 275 275 275 275 275 275 275 274 274 274 274 274 273 273 273 273 273 273 273 273 272 272 272 272 272 272 272 272 273 273 273 275 279 281 282 283 284 285 283 282 281 281 281 281 282 282
281 281 280 279 279 278 278 278 276 276 275 275 275 273 273 273 273 273 274 274 274 274 274 274 273 273 272 272 271 271 271 271 271 271 272 271 271 271 271 271 271 271 271 271 271 271 272 273 277 279 280 281 282 282 281 281 281 281 280 280 281 281
279 279 279 279 278 278 277 276 275 275 274 273 273 271 272 271 271 272 272 272 272 272 272 272 271 271 270 270 269 269 269 270 270 270 270 270 269 269 269 270 269 270 270 270 270 271 271 272 275 278 279 280 281 281 278 278 278 278 279 279 280 280
279 279 278 277 276 276 275 274 274 273 271 272 271 271 270 270 271 271 270 270 270 270 270 270 269 269 268 267 267 267 267 267 267 268 268 268 268 268 268 269 268 269 269 270 270 272 271 271 273 276 278 279 280 279 277 276 276 277 278 278 279 280
278 277 276 275 274 274 273 273 272 270 271 270 270 269 269 269 270 269 269 269 269 268 268 267 267 266 266 265 265 265 265 266 266 266 266 266 266 266 266 267 267 266 267 268 268 268 269 269 270 272 276 277 278 279 276 275 274 273 274 276 277 277
277 276 275 274 273 273 272 271 270 269 269 269 268 268 268 269 268 268 267 267 266 266 265 265 264 263 263 264 263 264 264 264 264 264 263 263 264 264 264 264 264 264 265 266 266 267 267 268 268 269 274 276 277 277 277 273 273 273 273 274 275 276
275 274 273 273 272 272 270 268 267 268 268 267 266 267 268 267 266 266 265 264 264 263 263 262 262 263 262 262 262 262 262 262 263 262 262 262 262 262 262 262 262 263 263 264 264 265 265 267 270 268 271 274 275 276 277 273 272 273 273 273 274 276
273 272 271 271 270 270 268 266 265 265 266 265 266 266 266 265 265 264 263 262 262 261 261 261 261 261 261 261 261 261 261 261 261 261 261 261 261 260 260 261 261 261 261 262 263 264 265 265 267 270 269 272 274 275 276 276 275 277 275 274 274 274
270 270 269 269 268 267 267 265 264 264 264 264 265 265 264 263 262 262 261 261 260 260 260 260 260 261 261 260 261 260 260 260 260 260 260 260 260 260 260 260 260 260 260 261 261 263 264 265 266 269 271 270 272 274 275 275 276 277 275 275 275 276
267 267 266 267 266 266 264 263 262 262 262 263 264 263 262 261 261 260 259 259 259 259 259 260 260 260 260 260 260 259 260 259 260 259 260 260 259 259 259 259 260 259 260 260 260 261 262 264 265 266 268 271 271 272 273 274 276 277 278 275 276 278
265 264 264 265 265 264 264 262 261 260 261 263 262 262 261 260 259 259 258 258 259 259 259 259 259 259 260 260 260 260 260 259 259 259 259 259 259 259 259 259 259 259 259 259 260 260 261 262 263 263 264 266 267 268 270 272 273 274 276 278 277 280
263 263 262 262 263 262 261 260 260 261 261 261 261 261 260 259 258 258 258 258 258 259 259 258 258 259 259 259 260 260 260 260 259 259 259 259 258 258 258 259 259 259 259 259 259 259 260 261 261 262 262 263 264 264 266 268 269 272 273 273 275 279
262 262 261 262 262 261 260 260 259 259 260 260 260 259 259 258 258 258 258 258 258 258 258 258 259 259 259 259 259 258 258 259 259 258 258 258 258 258 258 258 258 259 259 259 259 260 260 260 260 261 261 262 264 264 266 266 267 268 269 270 272 274
261 260 260 260 260 260 259 258 258 258 259 260 259 259 258 258 258 258 257 258 258 258 259 258 258 258 258 258 258 258 258 258 258 258 259 260 260 260 259 260 260 261 262 261 261 261 261 261 262 263 267 266 269 267 267 267 268 268 269 272 275 273
260 259 259 259 260 259 258 257 258 258 259 259 258 258 257 257 258 257 257 258 257 258 258 258 257 257 257 257 257 257 257 261 265 264 261 261 266 268 270 269 264 264 265 264 265 265 264 263 265 270 272 273 273 274 274 274 274 275 273 275 277 275
258 258 258 258 258 258 257 257 257 258 258 258 258 258 257 257 257 257 257 257 257 257 258 257 257 257 257 257 257 257 257 257 259 265 267 267 267 268 269 270 271 271 271 267 265 267 271 272 272 273 272 273 273 273 274 274 274 275 275 276 273 271
258 257 258 257 257 256 256 256 257 257 257 258 258 258 257 257 257 257 257 257 257 257 257 257 257 257 257 257 257 257 256 256 256 257 263 266 267 268 269 269 270 270 270 271 269 268 266 269 271 272 272 272 273 273 273 274 274 275 275 276 276 271
258 258 257 257 256 256 256 256 256 257 257 258 258 258 257 257 257 257 257 257 257 257 257 257 257 257 257 256 256 256 257 256 256 256 256 259 265 267 267 268 269 270 270 270 271 271 270 270 271 272 272 272 272 273 273 274 274 275 276 276 272 270
258 258 257 256 255 255 256 256 256 257 257 257 258 258 257 257 257 257 257 257 257 257 257 257 257 257 257 257 257 257 257 257 257 257 257 257 257 259 262 266 267 268 269 269 270 270 270 271 271 271 272 272 273 273 274 274 272 275 276 274 270 270
257 256 256 257 256 256 255 256 257 257 258 258 257 257 257 257 257 257 257 258 258 257 257 257 257 257 257 257 257 257 257 257 258 258 258 257 257 257 257 258 259 264 268 265 267 269 271 271 271 272 272 273 273 274 274 274 270 269 270 270 271 271
256 255 256 256 255 255 255 256 257 258 258 257 257 257 257 257 257 257 257 257 257 257 257 257 257 257 257 257 257 258 258 259 259 258 258 258 258 258 258 258 259 260 264 268 269 270 270 271 271 272 272 273 273 274 274 269 268 268 269 269 270 270
Wind_Speed
3 3 4 4 3 4 3 4 4 4 4 4 5 6 6 6 5 5 5 5 5 4 5 5 6 5 5 5 6 6 6 7 7 8 8 8 9 9 9 9 9 8 8 6 6 5 5 5 5 5 5 5 6 6 7 6 6 7 7 7 6 7
1 1 1 1 1 2 3 3 3 4 3 4 4 3 4 5 5 5 5 5 5 5 4 5 4 5 5 5 5 7 7 6 6 7 8 9 8 8 8 8 8 9 9 8 8 7 6 5 5 5 5 5 6 6 7 7 6 7 7 7 7 6
1 2 2 2 3 3 3 3 4 3 4 4 4 4 4 5 4 4 5 4 4 4 4 4 4 5 4 5 5 5 6 6 6 6 6 6 8 8 9 9 9 8 9 9 8 7 8 6 6 4 4 5 6 7 6 7 7 7 7 6 8 6
1 1 2 2 3 2 1 2 2 3 4 3 4 4 3 4 4 4 4 4 4 5 4 4 3 3 4 5 5 5 6 6 6 6 6 6 7 7 8 9 8 8 9 8 8 8 8 8 7 6 4 6 6 7 6 7 7 8 7 6 7 7
1 1 2 1 1 0 0 0 1 0 0 0 2 2 3 3 3 4 4 4 3 5 4 4 5 4 4 4 4 4 5 5 6 6 6 7 7 6 7 7 8 8 8 8 8 8 7 7 7 6 5 6 6 8 8 7 8 8 8 7 8 8
1 0 0 0 0 0 1 0 1 1 0 0 1 1 1 3 3 4 4 4 4 5 4 4 4 5 5 5 3 4 4 4 4 5 6 7 8 8 8 8 7 7 7 7 8 8 8 8 7 6 5 6 6 7 9 9 8 8 8 8 8 8
0 0 0 0 0 0 1 1 1 1 1 1 1 1 1 1 1 4 5 5 6 6 5 5 5 5 5 5 4 4 4 4 4 4 4 5 6 6 8 9 7 8 7 8 8 9 8 8 8 7 6 6 5 7 8 9 9 8 8 8 8 8
1 0 0 0 0 0 1 1 1 1 1 1 1 2 2 2 1 2 3 4 5 5 6 6 6 7 7 7 5 4 4 5 5 6 7 6 7 6 5 7 7 7 8 8 8 8 8 8 8 8 7 7 7 7 8 9 9 9 9 8 7 7
1 1 1 1 2 2 3 4 4 5 5 5 5 4 4 4 4 5 5 6 5 6 6 6 7 8 8 8 7 6 5 5 5 6 7 8 8 10 10 10 10 8 7 9 8 8 9 8 7 8 8 8 8 8 8 9 9 9 8 7 8 8
2 2 2 1 1 1 2 2 2 3 3 4 4 5 5 5 5 5 5 5 6 6 6 6 5 6 8 8 8 7 7 6 6 5 6 7 9 10 10 9 10 10 9 10 10 9 9 9 8 7 7 8 8 8 8 9 9 9 8 8 8 9
4 4 3 3 2 2 3 2 2 2 2 2 3 4 4 3 3 4 4 5 6 6 6 6 6 5 6 7 7 8 9 9 8 7 7 6 7 7 8 9 10 10 10 9 9 10 10 10 9 7 7 8 9 8 9 9 9 9 9 9 8 8
5 5 4 4 4 4 2 2 2 3 2 3 4 4 4 2 3 3 4 4 5 5 5 6 6 7 7 6 7 7 7 8 8 8 9 9 8 8 8 9 9 9 10 11 11 10 9 9 7 11 17 15 10 9 9 9 9 9 9 9 9 9
4 4 4 4 4 3 3 4 4 4 3 4 4 4 3 1 3 4 5 6 5 5 5 6 6 7 8 8 8 7 7 7 6 6 8 9 9 11 10 10 10 10 9 10 10 11 10 10 10 17 17 18 20 13 10 10 10 9 9 10 10 11
4 5 4 4 4 4 4 4 4 3 3 4 4 4 2 2 4 5 5 5 5 5 6 6 7 7 8 7 8 9 9 9 8 9 9 9 10 10 10 12 13 13 12 10 11 11 11 11 12 20 22 23 22 19 13 10 9 10 10 10 10 10
5 5 5 5 5 5 5 4 2 3 4 4 4 1 2 3 4 5 6 6 6 6 7 7 7 8 8 8 8 8 7 8 9 9 9 10 9 9 11 13 14 15 15 14 14 14 13 12 14 20 22 23 25 25 20 12 11 11 11 12 12 11
5 6 6 6 6 4 3 1 1 4 4 2 0 1 3 4 5 6 7 7 7 7 7 7 6 8 9 9 8 8 8 8 9 9 8 8 9 10 11 12 13 13 14 14 15 15 16 17 17 23 23 23 24 25 22 13 14 13 13 13 12 12
5 4 5 4 2 1 1 1 2 2 1 1 1 2 3 4 6 6 7 8 8 7 7 7 7 9 10 10 9 8 8 9 10 11 10 9 9 11 12 12 13 13 13 14 14 14 16 15 24 26 26 25 26 26 22 14 13 13 13 13 13 13
5 4 2 2 3 1 1 2 2 1 1 2 2 3 3 4 6 7 7 8 7 7 7 7 9 10 10 8 8 9 11 11 12 13 12 11 11 11 11 13 12 14 15 15 15 15 17 17 26 28 28 28 26 28 16 13 14 14 13 14 14 13
2 2 3 3 3 2 3 2 3 3 2 3 3 3 4 5 6 7 7 7 8 8 7 8 9 10 10 10 11 12 12 13 14 14 11 13 13 14 14 14 14 13 15 17 16 17 17 17 23 29 30 29 30 22 13 13 13 14 15 16 15 14
5 4 4 1 1 1 3 4 4 4 4 4 4 4 6 5 7 7 7 8 7 8 8 9 9 10 11 11 12 13 14 14 13 13 12 12 14 15 15 15 15 15 15 16 18 17 17 19 24 31 31 31 31 25 17 15 15 16 17 16 16 14
3 3 3 4 4 5 5 5 5 4 4 5 5 5 6 7 7 7 7 9 9 10 9 9 9 10 11 12 13 12 14 14 14 13 12 12 13 15 15 15 15 16 16 16 18 24 24 21 23 32 32 33 31 25 16 15 15 16 16 16 17 16
4 4 4 4 4 4 4 4 4 4 5 6 5 6 7 8 7 8 9 10 11 9 9 8 9 10 10 12 14 13 13 12 12 12 12 13 12 14 14 14 15 18 18 18 18 18 19 20 20 22 33 32 33 33 22 15 15 17 19 19 18 17
5 5 4 4 4 4 4 4 4 5 5 6 7 7 8 8 9 10 11 11 10 10 10 9 8 11 12 11 12 12 13 11 12 13 13 14 13 13 14 16 16 17 19 18 18 18 19 17 20 22 33 33 34 36 31 19 19 19 19 20 20 18
4 5 5 4 6 5 4 4 4 4 6 5 7 7 8 10 11 10 10 11 11 11 11 10 10 10 11 11 11 12 14 12 11 12 13 12 13 15 17 16 15 15 17 17 16 16 17 19 27 22 29 33 34 34 36 23 20 22 19 21 20 20
4 4 4 4 4 3 3 4 5 5 5 7 8 8 9 9 10 10 10 11 12 12 12 12 12 12 10 11 11 12 15 13 12 13 13 13 14 15 16 16 14 14 15 16 13 12 13 15 16 25 23 29 31 32 31 34 28 33 25 21 21 21
3 3 3 4 3 4 4 4 5 5 7 10 8 8 7 8 9 10 11 11 12 12 12 12 12 11 11 11 12 13 14 14 13 12 11 11 12 12 14 13 12 13 14 15 15 13 12 12 13 19 27 25 31 30 32 34 35 35 24 21 19 19
3 3 3 3 3 3 3 4 5 8 10 9 7 8 9 9 10 11 12 12 12 12 12 12 11 12 12 11 11 13 13 14 12 12 11 10 11 12 13 14 12 13 14 15 15 14 12 10 12 11 17 27 28 32 33 34 35 34 34 25 20 20
2 2 2 2 2 2 2 3 4 8 10 8 7 8 9 10 11 12 12 12 12 12 12 14 14 12 11 12 11 11 11 12 12 12 12 11 12 12 13 14 13 13 14 14 14 13 14 12 12 13 14 18 23 25 31 36 36 35 34 30 24 30
4 3 3 4 2 3 3 4 4 5 7 9 9 9 10 10 11 13 12 12 12 12 11 13 12 12 12 10 10 9 9 10 11 12 12 12 13 13 13 14 13 14 14 15 15 15 15 14 11 12 12 12 14 14 18 19 21 28 30 21 19 20
4 5 5 5 4 4 4 4 5 5 7 7 8 9 10 11 11 12 13 14 12 11 11 12 13 14 12 11 10 11 11 10 10 12 13 12 13 14 15 14 15 15 16 16 16 16 16 14 12 11 12 13 14 14 15 15 16 17 16 17 17 18
4 4 4 6 4 5 5 5 5 5 7 8 8 9 10 11 11 12 13 12 11 12 11 11 11 11 12 13 12 10 10 12 12 13 13 13 12 12 14 15 15 15 14 14 14 15 16 15 14 12 15 18 22 21 17 14 13 14 16 21 28 23
3 4 5 6 5 5 6 6 6 6 6 7 7 8 10 11 12 12 12 11 11 11 11 11 11 11 12 12 13 13 12 13 22 19 16 15 22 30 32 27 20 19 17 17 15 13 16 16 16 27 35 35 34 34 34 31 31 29 25 29 36 26
3 5 5 6 5 6 6 7 7 8 7 7 8 8 10 10 11 11 11 11 11 12 13 12 12 11 11 12 12 12 13 13 12 20 28 27 28 29 31 31 34 35 33 25 20 21 33 36 37 36 33 33 32 32 32 32 31 32 31 31 24 19
4 4 5 5 6 7 6 7 8 8 8 7 8 8 8 9 10 11 12 11 11 12 12 11 12 12 12 11 11 12 13 13 14 13 17 25 27 28 30 31 33 33 32 34 30 25 19 26 32 35 33 33 33 31 31 31 31 31 31 31 32 20
3 4 4 5 6 7 7 8 9 7 7 8 7 7 9 9 10 12 13 12 12 12 12 12 12 11 11 12 12 12 12 13 13 16 16 14 21 27 28 29 31 32 32 32 32 34 31 31 31 34 33 32 32 32 30 30 32 30 31 32 21 15
5 5 6 7 7 8 7 8 9 7 8 7 7 7 9 10 11 12 11 11 12 12 12 11 11 11 11 10 11 12 13 13 13 15 16 17 15 14 17 23 27 30 31 31 32 32 32 32 34 34 33 31 30 29 29 28 23 29 31 26 18 15
6 6 7 9 8 8 7 9 9 7 7 7 7 8 9 10 12 11 13 19 15 10 11 11 11 11 11 11 11 12 12 13 14 13 15 15 16 17 16 14 14 19 27 25 24 28 32 32 32 31 30 31 30 30 31 31 18 15 12 13 12 12
7 8 8 7 7 7 8 10 9 7 7 7 7 9 10 11 11 11 10 10 11 10 10 11 11 11 11 11 12 11 12 13 13 14 14 14 15 15 16 15 14 14 19 33 31 31 29 30 30 29 30 29 30 30 31 16 12 12 11 12 11 11
Wind_Direction
47 30 39 36 29 34 43 48 43 33 38 36 49 42 34 24 14 11 6 19 11 14 10 10 9 9 9 0 4 359 3 1 359 358 350 344 345 346 344 340 337 333 324 320 306 292 280 274 269 264 263 254 256 256 254 254 245 245 251 251 244 246
66 57 66 48 26 29 31 46 41 35 28 37 35 34 34 26 19 10 7 358 7 1 5 2 13 6 8 3 6 2 359 353 354 352 355 348 343 345 343 342 341 336 333 328 324 315 298 281 273 270 264 262 250 249 250 251 245 246 246 248 241 242
68 53 51 16 31 15 34 39 26 23 22 19 19 31 12 24 357 3 341 348 338 6 356 353 359 359 359 3 1 7 352 351 349 348 348 339 348 346 343 343 339 336 332 327 326 324 317 302 286 278 273 265 262 256 246 248 244 245 248 245 250 244
58 80 33 51 58 41 36 55 53 4 17 358 358 14 2 27 1 359 338 331 324 338 331 336 341 348 352 7 354 4 351 348 346 340 345 345 334 342 337 336 333 334 332 330 323 321 319 319 308 292 286 277 273 268 257 252 246 245 246 240 248 247
99 74 105 86 81 39 300 178 139 212 317 333 321 10 326 13 345 347 340 341 340 336 325 333 337 346 349 6 346 5 345 342 337 337 343 334 330 330 330 324 325 324 326 325 324 320 318 314 314 310 301 288 276 270 266 256 248 243 242 240 240 243
311 51 100 147 289 226 278 232 163 171 262 253 283 321 323 357 339 345 339 339 344 335 345 349 343 353 338 342 329 353 332 334 327 331 339 329 329 330 325 322 314 315 316 317 315 316 313 312 305 304 300 291 286 278 271 265 256 248 243 238 237 238
228 151 150 183 188 131 335 28 81 84 32 33 19 346 332 2 331 3 339 339 343 335 342 344 349 348 339 329 323 334 334 335 330 327 330 323 318 317 319 316 316 314 312 312 310 309 308 303 301 299 297 290 285 281 279 275 268 260 251 242 237 235
227 193 188 199 158 77 10 354 10 23 10 16 22 24 1 341 31 7 1 343 351 340 342 343 347 344 339 329 322 328 333 331 333 333 333 329 316 309 302 300 303 302 304 302 299 294 292 292 294 291 286 284 280 276 272 273 272 269 263 255 248 244
289 286 329 342 348 1 359 350 356 349 353 348 354 6 1 347 11 1 4 352 353 348 340 343 341 337 334 329 324 329 334 330 329 333 327 324 320 318 319 317 311 305 301 300 296 292 288 285 282 283 281 278 273 266 263 262 263 265 266 264 264 261
248 259 254 270 286 302 315 311 331 328 324 337 333 342 347 337 2 355 353 348 341 335 328 325 326 327 322 321 322 324 323 321 322 321 317 319 317 314 310 307 306 306 310 303 300 295 293 284 278 272 271 267 264 263 260 259 260 262 263 264 261 261
230 238 241 247 244 266 264 272 294 306 319 316 312 309 305 304 348 336 335 334 324 314 314 314 314 310 309 309 315 316 316 317 316 315 312 305 300 297 295 296 295 295 292 288 288 293 293 291 285 278 272 275 272 266 265 265 265 265 268 266 261 256
217 217 223 221 228 231 247 260 258 249 238 263 273 274 271 313 310 311 309 299 288 292 300 304 307 308 305 306 303 298 299 302 304 306 307 304 297 291 288 287 283 280 282 286 286 284 281 276 276 276 274 269 267 269 269 267 263 263 266 268 270 263
210 219 219 220 216 222 226 233 237 240 248 261 264 260 263 294 306 297 285 284 284 291 296 300 297 300 300 296 299 297 292 284 281 285 290 295 298 300 300 294 289 283 276 275 275 276 276 278 280 274 268 266 267 269 268 267 269 263 260 261 261 266
218 219 219 217 217 217 223 230 238 236 252 261 269 265 287 335 301 291 282 278 286 291 293 290 290 285 280 283 284 288 289 290 292 292 293 296 300 300 302 302 299 297 292 285 277 271 267 265 259 270 277 278 278 276 271 263 262 265 265 262 259 256
215 216 217 218 219 215 221 208 199 233 244 260 254 287 349 319 313 301 295 290 289 287 284 282 280 280 282 280 276 272 276 278 280 282 285 286 290 298 299 299 303 301 300 298 296 291 284 279 269 271 272 276 278 278 277 271 266 266 265 261 259 258
220 216 210 211 215 202 194 166 213 236 236 230 306 26 340 332 308 299 293 291 285 280 277 275 278 280 281 281 279 278 277 276 273 276 279 285 288 285 286 286 284 285 287 290 292 293 292 288 281 277 274 271 271 273 274 268 269 269 265 261 256 255
227 230 238 236 178 121 88 305 256 265 339 21 12 355 341 312 296 290 286 285 285 284 283 284 284 284 284 281 280 282 284 288 290 286 284 283 283 286 286 286 286 282 281 281 280 281 281 280 281 281 280 276 272 270 269 266 266 266 264 261 258 254
250 252 253 110 78 53 41 289 290 38 312 30 9 334 318 300 291 284 285 285 286 287 289 294 293 290 289 291 295 297 296 296 294 294 295 292 286 279 278 278 276 279 280 279 278 279 278 278 279 281 280 279 278 275 269 263 259 259 260 261 260 256
273 108 101 70 64 19 314 336 40 30 7 2 334 326 301 294 286 287 288 289 293 295 297 299 299 298 300 303 303 301 300 299 296 293 293 291 289 288 286 282 281 280 279 280 278 275 274 275 276 278 278 278 278 278 272 269 266 262 260 258 256 254
84 70 78 49 1 357 35 42 40 28 2 332 315 307 296 292 289 292 294 294 302 305 308 307 305 304 306 308 303 300 298 295 293 291 295 292 293 290 288 287 286 281 277 276 275 273 275 276 276 276 276 276 276 275 274 271 269 264 261 260 256 255
93 87 65 59 39 37 49 40 32 7 332 311 307 303 302 301 300 304 306 307 308 307 308 310 311 307 306 302 299 300 298 297 296 294 295 290 288 285 287 285 284 284 281 278 277 279 278 277 278 278 279 278 278 278 276 274 272 271 266 264 262 256
67 51 59 48 60 54 44 32 11 344 318 312 311 311 306 306 311 311 310 308 307 309 311 312 309 304 303 300 298 295 290 291 293 293 293 290 288 288 287 287 287 287 285 285 283 281 278 280 279 280 281 281 280 278 277 275 274 270 270 268 266 264
86 81 72 76 55 37 21 18 3 331 321 314 315 308 307 312 314 312 311 311 309 309 308 307 304 301 297 293 292 293 292 292 292 293 291 290 289 287 286 287 288 286 284 283 282 282 282 280 283 284 283 282 280 278 276 274 270 270 270 270 266 260
63 61 52 50 35 24 25 20 355 321 318 316 307 304 315 318 314 314 313 310 308 307 304 302 299 294 293 294 293 292 289 288 286 286 289 288 288 288 286 286 286 285 283 282 281 281 283 285 286 286 286 285 283 281 277 273 268 266 265 265 262 260
61 47 38 20 18 25 23 22 342 324 318 309 305 315 318 315 316 313 310 308 306 305 303 301 299 298 297 293 291 289 289 292 290 287 285 286 286 285 286 286 286 284 282 284 282 281 282 282 282 285 287 289 290 288 286 281 277 273 269 262 260 258
48 27 5 4 4 30 26 22 346 324 315 304 313 317 316 315 313 309 305 303 302 302 301 300 300 298 295 294 293 289 288 289 288 285 284 285 284 286 286 285 286 285 286 288 289 290 287 287 289 291 291 292 292 292 291 290 286 282 274 266 259 259
19 5 340 336 18 17 36 37 352 317 305 304 322 316 316 312 309 306 302 301 301 300 300 299 298 298 295 293 291 292 292 289 288 288 287 284 284 284 285 287 288 285 286 287 288 290 288 285 287 286 296 299 302 301 298 294 289 284 280 277 272 259
5 343 300 307 360 14 29 8 347 309 298 312 315 314 311 308 307 304 301 301 300 300 302 301 299 294 290 289 287 283 284 287 292 291 293 290 286 285 285 287 286 283 283 281 283 284 285 286 284 287 290 293 293 295 297 296 294 294 293 286 272 269
328 312 314 318 341 6 349 328 306 286 299 307 310 309 307 304 302 300 301 301 302 301 301 298 300 299 296 292 290 286 287 293 294 293 293 291 289 287 284 285 283 284 281 280 281 280 280 279 276 276 277 276 279 280 285 291 298 298 298 299 297 284
317 313 321 319 330 335 319 308 295 291 296 300 305 306 304 301 301 301 303 304 304 302 303 300 297 298 299 299 298 300 300 293 291 291 289 290 287 286 285 281 281 280 279 279 279 280 278 275 271 265 269 270 271 271 275 279 281 285 287 294 295 299
313 310 318 313 325 316 306 297 293 294 299 302 304 302 301 299 300 299 299 301 303 302 302 298 299 300 301 301 299 290 290 297 293 285 279 269 266 267 272 275 275 271 271 270 275 281 280 277 275 268 264 267 272 275 275 266 265 272 281 281 285 289
312 320 314 307 315 306 300 296 295 295 299 301 298 298 297 300 301 302 301 303 302 302 302 301 300 300 299 299 298 298 289 274 287 291 291 291 288 288 288 288 288 289 289 288 283 279 286 290 288 291 292 292 292 289 288 287 285 284 283 285 287 286
325 311 303 301 306 300 297 296 296 299 299 295 293 293 293 298 300 301 301 304 302 302 303 302 301 299 296 294 294 294 293 294 282 285 289 290 292 293 292 292 291 293 293 293 293 292 291 293 296 298 297 296 294 292 289 287 285 285 284 283 285 290
308 301 300 304 299 294 296 294 293 294 294 290 286 286 288 293 296 299 300 301 298 300 298 296 297 296 294 293 292 293 295 295 297 291 285 291 294 294 294 294 294 294 295 295 295 296 296 295 296 297 296 295 293 292 291 288 286 284 283 282 281 277
300 300 298 293 293 293 291 292 290 291 288 286 283 286 291 293 294 293 295 296 296 296 296 297 294 291 292 294 297 297 296 298 300 301 303 292 289 292 294 294 294 296 297 297 298 298 298 299 299 298 298 296 294 291 288 286 283 282 280 282 278 269
305 299 296 293 290 289 290 288 289 289 285 281 287 292 293 294 291 289 290 293 295 297 296 293 289 290 291 291 292 293 295 295 296 296 296 301 303 296 290 290 293 295 298 298 298 299 300 300 298 299 299 299 297 293 291 287 284 281 279 276 272 267
300 298 293 293 295 293 291 288 289 289 289 294 296 298 296 294 293 291 289 289 293 293 291 288 288 290 290 293 293 294 294 293 294 293 296 298 300 301 302 303 297 293 297 299 300 300 301 302 302 302 301 301 299 297 293 293 288 282 273 268 265 264
298 293 291 289 288 289 291 289 290 297 297 298 300 300 298 297 297 294 292 292 291 291 285 285 286 288 291 292 291 290 290 294 294 296 295 294 292 294 297 297 295 295 297 301 302 302 303 302 303 302 301 299 298 297 298 294 281 273 259 254 254 254